Content
SEND FEEDBACK

Daily
Averages
Monthly
Summary
Malta

VALLETTA, MALTA


Home > Europe > Malta
Elevation: 299 feet     Latitude: 35 51N     Longitude: 014 29E

WEATHER
 
SELECT A DAY
Number of Records: 310,800;   Date Range: 7/1/96 - 9/15/14
 
SHARE

PRINT THIS DATA

[ ← Previous Day ]
WEATHER ALMANAC - FEBRUARY 13, 2013
[ Next Day → ]
[ °C ]   °F
Weather ElementAverageHighLow
Temperature49.3 °F55.4 °F (10:15 am)46 °F (10:00 pm)
Dewpoint42.5 °F44.6 °F (12:15 pm)39.2 °F (4:45 am)
Humidity77.1 %93 % (9:15 pm)52 % (10:00 am)
Barometer29.82 in29.85 in (7:00 pm)29.77 in (2:45 am)
Wind Speed11.5 mph18.4 mph (1:45 am)
Wind Gust29.9 mph (2:45 pm)
Weather ElementAverage
Visibility6 mi
Wind DirectionWNW (281.2 °)

Weather ElementTotal
Precipitation---
Heating Degree Days14.3 (Base 65)
Growing Degree Days0.7 (Base 50)
Averaged from 75 records on February 13, 2013
WEATHER CONDITIONS BREAKOUT
WIND DIRECTION BREAKOUT
WEATHER BY HOUR - FEBRUARY 13, 2013
[ °C ]   °F
Local TimeTemperatureDewpointHumidityBarometerVisibilityWind DirectionWind SpeedGust SpeedPrecipitationEventsConditions
12:45 AM50.0 °F42.8 °F76 %29.80 in6.2 miWest (270°)9.2 mphMostly Cloudy
1:00 AM50.0 °F44.0 °F72 %29.81 in7.0 miWest (280°)9.2 mphPartly Cloudy
1:15 AM50.0 °F41.0 °F71 %29.80 in6.2 miWNW (290°)17.3 mphMostly Cloudy
1:45 AM50.0 °F41.0 °F71 %29.80 in6.2 miWNW (290°)18.4 mphMostly Cloudy
2:15 AM50.0 °F41.0 °F71 %29.80 in6.2 miWNW (290°)18.4 mphPartly Cloudy
2:45 AM50.0 °F41.0 °F71 %29.77 in6.2 miWNW (290°)16.1 mphPartly Cloudy
3:15 AM51.8 °F41.0 °F67 %29.77 in6.2 miWNW (290°)17.3 mphScattered Clouds
3:45 AM50.0 °F41.0 °F71 %29.80 in6.2 miWNW (290°)15.0 mphPartly Cloudy
4:00 AM51.0 °F40.0 °F57 %29.81 in7.0 miWNW (290°)17.3 mphPartly Cloudy
4:15 AM50.0 °F41.0 °F71 %29.80 in6.2 miWNW (300°)16.1 mphScattered Clouds
4:45 AM50.0 °F39.2 °F66 %29.80 in6.2 miWNW (290°)12.7 mphMostly Cloudy
5:02 AM50.0 °F41.0 °F71 %29.80 in3.7 miWNW (290°)15.0 mphRainLight Rain Showers
5:15 AM48.2 °F41.0 °F76 %29.80 in5.6 miWest (270°)16.1 mphScattered Clouds
5:45 AM50.0 °F41.0 °F71 %29.80 in6.2 miWest (280°)17.3 mphScattered Clouds
6:15 AM48.2 °F41.0 °F76 %29.80 in4.3 miWNW (300°)16.1 mphRainLight Rain Showers
6:45 AM48.2 °F42.8 °F82 %29.80 in5.6 miWest (270°)13.8 mphMostly Cloudy
7:00 AM49.0 °F42.0 °F71 %29.83 in6.0 miWNW (290°)10.4 mphRainLight Rain Showers
7:15 AM48.2 °F42.8 °F82 %29.83 in6.2 miWest (280°)5.8 mphMostly Cloudy
7:45 AM48.2 °F41.0 °F76 %29.83 in6.2 miWest (270°)11.5 mphScattered Clouds
8:15 AM50.0 °F41.0 °F71 %29.83 in6.2 miWest (270°)11.5 mphScattered Clouds
8:45 AM53.6 °F42.8 °F67 %29.83 in6.2 miWest (270°)10.4 mphScattered Clouds
9:15 AM53.6 °F41.0 °F62 %29.83 in6.2 miWest (260°)16.1 mphScattered Clouds
9:45 AM53.6 °F42.8 °F67 %29.83 in6.2 miWest (260°)15.0 mphScattered Clouds
10:00 AM55.0 °F42.0 °F52 %29.84 in12.0 miWest (260°)15.0 mphPartly Cloudy
10:15 AM55.4 °F42.8 °F63 %29.83 in6.2 miWest (260°)15.0 mphMostly Cloudy
10:45 AM55.4 °F42.8 °F63 %29.83 in6.2 miWest (260°)13.8 mphMostly Cloudy
11:15 AM55.4 °F42.8 °F63 %29.83 in6.2 miWest (260°)15.0 mphMostly Cloudy
11:37 AM53.6 °F42.8 °F67 %29.83 in6.2 miWest (270°)17.3 mphMostly Cloudy
11:45 AM51.8 °F42.8 °F71 %29.83 in6.2 miWest (270°)13.8 mph27.6 mphMostly Cloudy
12:15 PM55.4 °F44.6 °F67 %29.83 in6.2 miWSW (250°)17.3 mphMostly Cloudy
12:45 PM53.6 °F44.6 °F72 %29.83 in3.7 miWest (270°)17.3 mphHailHail Showers
1:00 PM50.0 °F42.0 °F66 %29.83 in9.0 miWSW (240°)12.7 mphRainLight Rain Showers
1:15 PM51.8 °F44.6 °F76 %29.80 in6.2 miWest (270°)15.0 mphScattered Clouds
1:45 PM55.4 °F44.6 °F67 %29.80 in6.2 miWest (260°)18.4 mphPartly Cloudy
2:15 PM55.4 °F44.6 °F67 %29.80 in6.2 miWest (260°)16.1 mphMostly Cloudy
2:45 PM51.8 °F42.8 °F71 %29.80 in6.2 miWest (260°)17.3 mph29.9 mphScattered Clouds
3:15 PM51.8 °F42.8 °F71 %29.80 in6.2 miWest (260°)17.3 mphScattered Clouds
3:45 PM51.8 °F42.8 °F71 %29.80 in6.2 miWest (270°)17.3 mphScattered Clouds
4:00 PM51.0 °F42.0 °F63 %29.81 in12.0 miWest (270°)17.3 mphPartly Cloudy
4:15 PM50.0 °F42.8 °F76 %29.80 in6.2 miNW (310°)18.4 mphRainRain Showers
4:37 PM48.2 °F42.8 °F82 %29.80 in6.2 miNW (310°)12.7 mphRainRain Showers
4:45 PM48.2 °F42.8 °F82 %29.80 in6.2 miNW (310°)12.7 mphRainRain Showers
5:15 PM48.2 °F44.6 °F87 %29.80 in6.2 miWest (260°)8.1 mphScattered Clouds
5:45 PM48.2 °F44.6 °F87 %29.80 in6.2 miWest (270°)8.1 mphRainLight Rain
6:15 PM48.2 °F44.6 °F87 %29.80 in6.2 miWest (280°)8.1 mphMostly Cloudy
6:45 PM48.2 °F42.8 °F82 %29.83 in6.2 miWest (280°)8.1 mphRainLight Rain
7:00 PM47.0 °F42.0 °F78 %29.85 in7.0 miWest (280°)10.4 mphRainLight Rain
7:15 PM46.4 °F41.0 °F81 %29.83 in6.2 miWest (260°)10.4 mphRainLight Rain
7:45 PM48.2 °F41.0 °F76 %29.83 in6.2 miWSW (250°)12.7 mphRain-ThunderstormThunderstorms and Rain
8:15 PM48.2 °F42.8 °F82 %29.83 in6.2 miWSW (250°)13.8 mphRainHeavy Rain
8:45 PM46.4 °F42.8 °F87 %29.83 in6.2 miWest (260°)8.1 mphRain-ThunderstormThunderstorms and Rain
9:15 PM46.4 °F44.6 °F93 %29.83 in2.5 miWest (260°)9.2 mphRainHeavy Rain
9:45 PM46.4 °F42.8 °F87 %29.83 in5.6 miWSW (250°)5.8 mphRainLight Rain
10:00 PM46.0 °F43.0 °F85 %29.85 in6.0 miWNW (300°)8.1 mphThunderstormLight Thunderstorm
10:07 PM46.4 °F42.8 °F87 %29.83 in6.2 miNW (320°)9.2 mphRainRain
10:08 PM46.4 °F42.8 °F87 %29.83 in6.2 miNW (320°)9.2 mphRainHeavy Rain
10:09 PM46.4 °F42.8 °F87 %29.83 in6.2 miNW (320°)10.4 mphRainRain
10:15 PM46.4 °F42.8 °F87 %29.83 in6.2 miNW (320°)10.4 mphRainRain
10:44 PM46.4 °F42.8 °F87 %29.83 in6.2 miVariable2.3 mphRainRain Showers
10:45 PM46.4 °F42.8 °F87 %29.83 in6.2 miWNW (300°)2.3 mphRainRain Showers
11:05 PM46.4 °F42.8 °F87 %29.83 in6.2 miNorth (350°)5.8 mphRainRain Showers
11:07 PM46.4 °F42.8 °F87 %29.83 in3.1 miNorth (350°)6.9 mphRainRain Showers
11:09 PM46.4 °F42.8 °F87 %29.83 in5.0 miNorth (350°)6.9 mphLight Drizzle
11:10 PM46.4 °F42.8 °F87 %29.83 in6.2 miNNW (340°)8.1 mphDrizzle
11:11 PM46.4 °F42.8 °F87 %29.83 in6.2 miNNW (340°)8.1 mphMostly Cloudy
11:15 PM46.4 °F42.8 °F87 %29.83 in6.2 miNW (320°)8.1 mphMostly Cloudy
11:31 PM46.4 °F42.8 °F87 %29.83 in6.2 miNW (310°)5.8 mphRainHeavy Rain
11:34 PM46.4 °F42.8 °F87 %29.83 in4.3 miWNW (290°)4.6 mphRainRain
11:35 PM46.4 °F42.8 °F87 %29.83 inWest (280°)3.5 mphRainHeavy Rain
11:36 PM46.4 °F42.8 °F87 %29.83 inWest (270°)3.5 mphRainRain
11:40 PM46.4 °F42.8 °F87 %29.83 in3.1 miWest (270°)3.5 mphRainHeavy Rain
11:42 PM46.4 °F42.8 °F87 %29.83 in3.1 miWNW (290°)3.5 mphRainRain
11:43 PM46.4 °F42.8 °F87 %29.83 in3.1 miNW (310°)4.6 mphRainHeavy Rain
11:44 PM46.4 °F42.8 °F87 %29.83 in3.1 miNW (320°)5.8 mphRainRain
11:45 PM46.4 °F42.8 °F87 %29.83 in3.1 miNW (320°)5.8 mphRainRain
Hourly data recorded from LMML, located miles away from Valletta, Malta







STORIES FROM OUR PARTNERS